When you browse on this site, cookies collect data to enhance your experience and personalize the content and advertising you see.
Visit our Privacy Policy to learn more. By continuing to use the site, you agree to this use of cookies and data.
  • In Hungary
  • List of Countries
  • For 7 days
  • Water Temperature
  • Satellite Maps
  • Weather Map
  • News
  • Weather Widgets
  • user-avatar
    Login

    Hourly Weather Nagano

    Today, 21 January, Monday

    Time Temperature Precipitation Wind Pressure Humidity
    00:00 -4°C° 0.1 mm 3 mps 688 mmHg 69%
    01:00 -5°C° 0.1 mm 3 mps 688 mmHg 68%
    02:00 -6°C° 0.1 mm 3 mps 688 mmHg 67%
    03:00 -6°C° 0 mm 3 mps 688 mmHg 68%
    04:00 -6°C° 0 mm 3 mps 688 mmHg 66%
    05:00 -6°C° 0 mm 2 mps 689 mmHg 64%
    06:00 -6°C° 0 mm 2 mps 689 mmHg 61%
    07:00 -5°C° 0 mm 2 mps 689 mmHg 58%
    08:00 -4°C° 0 mm 2 mps 690 mmHg 54%
    09:00 -3°C° 0 mm 2 mps 690 mmHg 53%
    10:00 -2°C° 0 mm 2 mps 690 mmHg 49%
    11:00 -1°C° 0 mm 2 mps 690 mmHg 45%
    12:00 +1°C° 0 mm 3 mps 690 mmHg 41%
    13:00 +1°C° 0 mm 3 mps 690 mmHg 42%
    14:00 +1°C° 0 mm 3 mps 689 mmHg 43%
    15:00 +2°C° 0 mm 2 mps 689 mmHg 42%
    16:00 -1°C° 0 mm 2 mps 689 mmHg 48%
    17:00 -2°C° 0 mm 2 mps 689 mmHg 54%
    18:00 -3°C° 0 mm 2 mps 689 mmHg 60%
    19:00 -3°C° 0.1 mm 2 mps 689 mmHg 60%
    20:00 -2°C° 0.1 mm 2 mps 689 mmHg 60%
    21:00 -1°C° 0 mm 2 mps 688 mmHg 60%
    22:00 -1°C° 0.1 mm 2 mps 688 mmHg 61%
    23:00 -1°C° 0.1 mm 2 mps 688 mmHg 62%

    Tomorrow, 22 January, Tuesday

    Time Temperature Precipitation Wind Pressure Humidity
    00:00 +1°C° 0.1 mm 1 mps 688 mmHg 63%
    01:00 +1°C° 0.1 mm 1 mps 688 mmHg 64%
    02:00 0°C° 0.1 mm 1 mps 689 mmHg 66%
    03:00 0°C° 0.1 mm 1 mps 689 mmHg 68%
    04:00 0°C° 0.1 mm 1 mps 689 mmHg 69%
    05:00 0°C° 0.1 mm 1 mps 689 mmHg 70%
    06:00 0°C° 0.1 mm 1 mps 689 mmHg 72%
    07:00 0°C° 0.1 mm 1 mps 689 mmHg 71%
    08:00 +1°C° 0.1 mm 1 mps 690 mmHg 70%
    09:00 +1°C° 0.1 mm 1 mps 690 mmHg 70%
    10:00 +2°C° 0 mm 1 mps 690 mmHg 64%
    11:00 +2°C° 0 mm 2 mps 690 mmHg 58%
    12:00 +3°C° 0 mm 2 mps 691 mmHg 52%
    13:00 +3°C° 0 mm 2 mps 691 mmHg 51%
    14:00 +3°C° 0 mm 2 mps 691 mmHg 50%
    15:00 +3°C° 0 mm 2 mps 691 mmHg 49%
    16:00 +1°C° 0 mm 2 mps 691 mmHg 56%
    17:00 +1°C° 0 mm 1 mps 691 mmHg 63%
    18:00 -1°C° 0 mm 1 mps 691 mmHg 70%
    19:00 -2°C° 0 mm 1 mps 691 mmHg 70%
    20:00 -2°C° 0 mm 1 mps 691 mmHg 70%
    21:00 -3°C° 0 mm 1 mps 691 mmHg 70%
    22:00 -3°C° 0 mm 1 mps 691 mmHg 69%
    23:00 -3°C° 0 mm 1 mps 691 mmHg 68%

    Day after tomorrow, 23 January, Wednesday

    Time Temperature Precipitation Wind Pressure Humidity
    00:00 -3°C° 0 mm 1 mps 691 mmHg 66%
    01:00 -3°C° 0 mm 1 mps 691 mmHg 64%
    02:00 -3°C° 0 mm 1 mps 691 mmHg 62%
    03:00 -3°C° 0 mm 1 mps 691 mmHg 60%
    04:00 -3°C° 0 mm 1 mps 691 mmHg 57%
    05:00 -3°C° 0 mm 1 mps 690 mmHg 54%
    06:00 -3°C° 0 mm 1 mps 690 mmHg 51%
    07:00 -1°C° 0 mm 1 mps 690 mmHg 47%
    08:00 -2°C° 0 mm 2 mps 690 mmHg 43%
    09:00 +1°C° 0 mm 2 mps 691 mmHg 40%
    10:00 +2°C° 0 mm 3 mps 690 mmHg 42%
    11:00 +3°C° 0 mm 3 mps 690 mmHg 44%
    12:00 +5°C° 0 mm 3 mps 690 mmHg 46%
    13:00 +5°C° 0 mm 3 mps 690 mmHg 47%
    14:00 +5°C° 0 mm 3 mps 689 mmHg 48%
    15:00 +5°C° 0 mm 4 mps 689 mmHg 49%
    16:00 +4°C° 0.1 mm 3 mps 689 mmHg 53%
    17:00 +3°C° 0.1 mm 3 mps 689 mmHg 58%
    18:00 +3°C° 0.1 mm 2 mps 689 mmHg 62%
    19:00 +3°C° 0.1 mm 2 mps 689 mmHg 65%
    20:00 +2°C° 0.1 mm 2 mps 689 mmHg 67%
    21:00 +2°C° 0.1 mm 2 mps 689 mmHg 70%
    22:00 +1°C° 0.1 mm 2 mps 689 mmHg 71%
    23:00 -1°C° 0.1 mm 2 mps 689 mmHg 72%

    24 January, Thursday

    Time Temperature Precipitation Wind Pressure Humidity
    00:00 -1°C° 0.1 mm 2 mps 690 mmHg 73%
    01:00 -2°C° 0.1 mm 2 mps 690 mmHg 72%
    02:00 -3°C° 0.1 mm 2 mps 690 mmHg 71%
    03:00 -3°C° 0.1 mm 2 mps 690 mmHg 70%
    04:00 -4°C° 0 mm 2 mps 690 mmHg 68%
    05:00 -4°C° 0 mm 2 mps 690 mmHg 66%
    06:00 -5°C° 0 mm 2 mps 690 mmHg 63%
    07:00 -4°C° 0 mm 2 mps 691 mmHg 59%
    08:00 -4°C° 0 mm 2 mps 691 mmHg 54%
    09:00 -3°C° 0 mm 2 mps 692 mmHg 50%
    10:00 -2°C° 0 mm 2 mps 692 mmHg 47%
    11:00 -1°C° 0 mm 2 mps 692 mmHg 45%
    12:00 0°C° 0 mm 3 mps 692 mmHg 42%
    13:00 -1°C° 0 mm 3 mps 692 mmHg 44%
    14:00 -1°C° 0 mm 3 mps 692 mmHg 45%
    15:00 -1°C° 0 mm 3 mps 692 mmHg 46%
    16:00 -2°C° 0 mm 2 mps 692 mmHg 52%
    17:00 -3°C° 0 mm 2 mps 693 mmHg 58%
    18:00 -5°C° 0 mm 2 mps 693 mmHg 63%
    19:00 -3°C° 0 mm 1 mps 693 mmHg 64%
    20:00 -3°C° 0 mm 1 mps 693 mmHg 65%
    21:00 -4°C° 0 mm 1 mps 694 mmHg 67%
    22:00 -4°C° 0 mm 1 mps 693 mmHg 66%
    23:00 -4°C° 0 mm 1 mps 693 mmHg 66%

    25 January, Friday

    Time Temperature Precipitation Wind Pressure Humidity
    00:00 -4°C° 0 mm 1 mps 693 mmHg 65%
    01:00 -6°C° 0 mm 1 mps 693 mmHg 65%
    02:00 -6°C° 0 mm 1 mps 693 mmHg 65%
    03:00 -6°C° 0 mm 1 mps 693 mmHg 64%
    04:00 -6°C° 0 mm 1 mps 693 mmHg 65%
    05:00 -6°C° 0 mm 1 mps 693 mmHg 65%
    06:00 -6°C° 0 mm 1 mps 693 mmHg 65%
    07:00 -4°C° 0 mm 1 mps 693 mmHg 62%
    08:00 -3°C° 0 mm 1 mps 693 mmHg 58%
    09:00 -2°C° 0 mm 1 mps 693 mmHg 54%
    10:00 0°C° 0 mm 1 mps 693 mmHg 49%
    11:00 +2°C° 0 mm 1 mps 693 mmHg 43%
    12:00 +3°C° 0 mm 1 mps 693 mmHg 38%
    13:00 +3°C° 0 mm 1 mps 693 mmHg 40%
    14:00 +3°C° 0 mm 1 mps 692 mmHg 41%
    15:00 +2°C° 0 mm 2 mps 692 mmHg 43%
    16:00 +1°C° 0 mm 1 mps 692 mmHg 51%
    17:00 0°C° 0 mm 1 mps 691 mmHg 60%
    18:00 -2°C° 0 mm 1 mps 691 mmHg 68%
    19:00 -2°C° 0 mm 1 mps 691 mmHg 68%
    20:00 -3°C° 0 mm 1 mps 691 mmHg 69%
    21:00 -3°C° 0 mm 1 mps 691 mmHg 69%
    22:00 -3°C° 0 mm 1 mps 691 mmHg 68%
    23:00 -3°C° 0 mm 1 mps 690 mmHg 67%

    26 January, Saturday

    Time Temperature Precipitation Wind Pressure Humidity
    00:00 -3°C° 0 mm 1 mps 690 mmHg 67%
    01:00 -3°C° 0.1 mm 1 mps 689 mmHg 68%
    02:00 -3°C° 0.1 mm 1 mps 689 mmHg 69%
    03:00 -3°C° 0.1 mm 1 mps 689 mmHg 70%
    04:00 -3°C° 0.1 mm 1 mps 689 mmHg 72%
    05:00 -3°C° 0.1 mm 1 mps 689 mmHg 74%
    06:00 -3°C° 0.1 mm 1 mps 688 mmHg 76%
    07:00 -2°C° 0.1 mm 1 mps 689 mmHg 73%
    08:00 -2°C° 0.1 mm 1 mps 689 mmHg 71%
    09:00 -1°C° 0.1 mm 1 mps 689 mmHg 69%
    10:00 -2°C° 0 mm 2 mps 689 mmHg 62%
    11:00 -1°C° 0 mm 2 mps 689 mmHg 55%
    12:00 +1°C° 0 mm 2 mps 689 mmHg 49%
    13:00 -1°C° 0.1 mm 3 mps 688 mmHg 53%
    14:00 -2°C° 0.1 mm 3 mps 688 mmHg 57%
    15:00 -4°C° 0.1 mm 4 mps 688 mmHg 61%
    16:00 -4°C° 0.2 mm 3 mps 688 mmHg 65%
    17:00 -5°C° 0.2 mm 3 mps 689 mmHg 68%
    18:00 -6°C° 0.2 mm 3 mps 689 mmHg 72%
    19:00 -5°C° 0.1 mm 2 mps 690 mmHg 73%
    20:00 -5°C° 0.1 mm 2 mps 690 mmHg 73%
    21:00 -5°C° 0.1 mm 2 mps 690 mmHg 73%
    22:00 -6°C° 0.1 mm 2 mps 690 mmHg 72%
    23:00 -6°C° 0.1 mm 2 mps 690 mmHg 71%
    Show more